Location: Burland Observatory
(39.4088°N, 105.4217°W)
Time: 01:03:22
(UTC-07:00)

Explorer 7 - Pass Details

Date: 13 December 2019
Orbit: 485 x 679 km, 50.3° (Epoch: 28 January)

Event Time Altitude Azimuth Distance (km) Brightness Sun altitude
Rises 19:29:01 0° 306° (NW) 3,031 11.2 -32.0°
Reaches altitude 10° 19:31:33 10° 315° (NW) 2,111 10.2 -32.5°
Enters shadow 19:32:54 18° 323° (NW) 1,658 9.5 -32.8°
